EHI
6 6 4 1 0 0 0 0 0 0 0 0 0 0 0 0 0 0 0 0 0 0 0 0 0 0 0 0 0 0 0 0 0 0 0 0 0 0 0 0 0 0 0
6 5 4 2 1 0 0 0 0 0 0 0 0 0 0 0 0 0 0 0 0 0 0 0 0 0 0 0 0 0 0 0 0 0 0 0 0 0 0 0 0 0 0
5 5 4 2 1 0 0 0 0 0 0 0 0 0 0 0 0 0 0 0 0 0 0 0 0 0 0 0 0 0 0 0 0 0 0 0 0 0 0 0 0 0 0
5 5 4 2 1 0 0 0 0 0 0 0 0 0 0 0 0 0 0 0 0 0 0 0 0 0 0 0 0 0 0 0 0 0 0 0 0 0 0 0 0 0 0
5 5 4 2 1 0 0 0 0 0 0 0 0 0 0 0 0 0 0 0 0 0 0 0 0 0 0 0 0 0 0 0 0 0 0 0 0 0 0 0 0 0 0
5 5 4 2 1 0 0 0 0 0 0 0 0 0 0 0 0 0 0 0 0 0 0 0 0 0 0 0 0 0 0 0 0 0 0 0 0 0 0 0 0 0 0
4 4 3 1 0 0 0 0 0 0 0 0 0 0 0 0 0 0 0 0 0 0 0 0 0 0 0 0 0 0 0 0 0 0 0 0 0 0 0 0 0 0 0
3 3 2 1 0 0 0 0 0 0 0 0 0 0 0 0 0 0 0 0 0 0 0 0 0 0 0 0 0 0 0 0 0 0 0 0 0 0 0 0 0 0 0
3 3 2 1 0 0 0 0 0 0 0 0 0 0 0 0 0 0 0 0 0 0 0 0 0 0 0 0 0 0 0 0 0 0 0 0 0 0 0 0 0 0 0
3 3 2 1 0 0 0 0 0 0 0 0 0 0 0 0 0 0 0 0 0 0 0 0 0 0 0 0 0 0 0 0 0 0 0 0 0 0 0 0 0 0 0
3 3 2 1 0 0 0 0 0 0 0 0 0 0 0 0 0 0 0 0 0 0 0 0 0 0 0 0 0 0 0 0 0 0 0 0 0 0 0 0 0 0 0
3 3 2 1 0 0 0 0 0 0 0 0 0 0 0 0 0 0 0 0 0 0 0 0 0 0 0 0 0 0 0 0 0 0 0 0 0 0 0 0 0 0 0
3 3 2 1 0 0 0 0 0 0 0 0 0 0 0 0 0 0 0 0 0 0 0 0 0 0 0 0 0 0 0 0 0 0 0 0 0 0 0 0 0 0 0
3 3 2 1 0 0 0 0 0 0 0 0 0 0 0 0 0 0 0 0 0 0 0 0 0 0 0 0 0 0 0 0 0 0 0 0 0 0 0 0 0 0 0
2 2 1 0 0 0 0 0 0 0 0 0 0 0 0 0 0 0 0 0 0 0 0 0 0 0 0 0 0 0 0 0 0 0 0 0 0 0 0 0 0 0 0
1 1 0 0 0 0 0 0 0 0 0 0 0 0 0 0 0 0 0 0 0 0 0 0 0 0 0 0 0 0 0 0 0 0 0 0 0 0 0 0 0 0 0
0 0 0 0 0 0 0 0 0 0 0 0 0 0 0 0 0 0 0 0 0 0 0 0 0 0 0 0 0 0 0 0 0 0 0 0 0 0 0 0 0 0 0
0 0 0 0 0 0 0 0 0 0 0 0 0 0 0 0 0 0 0 0 0 0 0 0 0 0 0 0 0 0 0 0 0 0 0 0 0 0 0 0 0 0 0
0 0 0 0 0 0 0 0 0 0 0 0 0 0 0 0 0 0 0 0 0 0 0 0 0 0 0 0 0 0 0 0 0 0 0 0 0 0 0 0 0 0 0
0 0 0 0 0 0 0 0 0 0 0 0 0 0 0 0 0 0 0 0 0 0 0 0 0 0 0 0 0 0 0 0 0 0 0 0 0 0 0 0 0 0 0
0 0 0 0 0 0 0 0 0 0 0 0 0 0 0 0 0 0 0 0 0 0 0 0 0 0 0 0 0 0 0 0 0 0 0 0 0 0 0 0 0 0 0
0 0 0 0 0 0 0 0 0 0 0 0 0 0 0 0 0 0 0 0 0 0 0 0 0 0 0 0 0 0 0 0 0 0 0 0 0 0 0 0 0 0 0
0 0 0 0 0 0 0 0 0 0 0 0 0 0 0 0 0 0 0 0 0 0 0 0 0 0 0 0 0 0 0 0 0 0 0 0 0 0 0 0 0 0 0
0 0 0 0 0 0 0 0 0 0 0 0 0 0 0 0 0 0 0 0 0 0 0 0 0 0 0 0 0 0 0 0 0 0 0 0 0 0 0 0 0 0 0
0 0 0 0 0 0 0 0 0 0 0 0 0 0 0 0 0 0 0 0 0 0 0 0 0 0 0 0 0 0 0 0 0 0 0 0 0 0 0 0 0 0 0
0 0 0 0 0 0 0 0 0 0 0 0 0 0 0 0 0 0 0 0 0 0 0 0 0 0 0 0 0 0 0 0 0 0 0 0 0 0 0 0 0 0 0
Wind_Speed
7 6 5 5 5 4 5 4 4 4 4 3 3 4 4 5 4 3 2 7 8 8 9 9 8 6 5 4 3 2 1 2 2 3 4 5 5 6 7 8 8 9 10
8 8 7 6 6 5 5 5 6 5 4 3 4 4 4 5 4 4 3 4 7 7 9 8 7 6 5 4 2 1 0 1 2 3 4 5 5 6 7 8 8 9 10
10 9 8 7 7 6 6 5 5 4 4 3 3 4 4 4 5 5 4 2 3 5 8 8 7 6 5 4 3 2 2 2 3 4 4 5 6 7 8 8 9 9 10
12 10 8 8 7 6 6 6 5 4 4 4 3 3 3 4 5 5 4 3 3 2 4 7 7 7 6 5 4 4 3 4 4 5 5 6 7 8 8 9 10 10 11
14 11 9 8 9 7 6 7 5 5 5 4 4 3 3 3 4 5 5 5 4 4 3 4 6 6 6 6 5 5 5 5 5 6 6 7 8 8 9 10 10 11 12
14 11 9 10 10 8 7 7 7 5 5 5 4 2 2 3 3 4 5 4 4 5 4 4 3 4 6 7 6 6 7 7 6 7 7 8 8 9 10 10 11 12 12
14 12 9 10 10 9 9 9 6 7 4 4 3 1 1 1 3 3 4 4 4 5 5 5 3 3 2 6 7 8 8 8 8 8 8 8 9 10 10 11 11 12 12
14 13 12 11 10 9 10 10 8 5 4 5 5 4 1 2 3 4 3 4 5 4 5 5 5 5 3 2 4 7 8 9 9 9 9 9 9 10 10 10 11 12 13
14 13 14 12 12 11 10 11 11 9 6 5 4 6 5 5 2 2 4 5 5 4 4 4 5 5 5 4 3 6 8 9 10 10 9 9 10 10 10 11 11 12 13
13 14 14 14 13 11 11 11 10 8 9 7 4 3 3 4 4 2 2 3 4 5 5 5 5 5 5 4 5 7 8 9 10 10 10 10 10 10 10 10 11 12 12
12 13 14 14 14 11 12 12 10 9 8 8 6 4 3 2 2 3 3 2 2 4 5 5 4 4 5 5 4 6 8 8 9 9 9 9 9 10 10 10 10 11 11
9 13 13 13 14 12 13 12 12 12 10 9 7 5 5 5 5 4 4 3 3 3 3 4 4 5 4 4 6 7 8 8 7 7 7 8 8 8 9 9 10 10 11
9 12 12 12 12 12 12 12 12 12 12 11 10 7 6 5 4 4 4 3 3 2 2 3 4 4 4 4 5 7 7 7 7 6 6 6 6 7 8 8 9 10 11
10 12 13 13 13 13 13 12 11 12 11 11 11 10 6 5 5 4 5 4 2 2 2 4 2 4 4 4 5 6 5 7 7 6 6 5 5 6 7 7 8 9 10
9 12 13 13 13 13 14 13 11 12 11 11 11 10 8 6 5 4 4 5 5 4 5 4 3 3 3 3 5 4 4 6 7 6 6 5 5 5 6 6 7 8 9
10 11 12 13 13 13 14 14 11 11 12 11 9 10 10 7 6 5 5 4 4 5 5 4 4 3 3 3 5 4 5 6 6 7 6 6 5 5 5 6 7 7 8
11 12 13 13 13 13 14 14 14 13 14 13 11 12 12 9 7 6 5 5 5 4 5 4 2 2 3 4 3 3 3 3 3 7 6 6 5 5 5 5 6 7 7
10 11 12 13 13 13 13 15 15 15 15 15 14 13 13 9 10 8 7 7 6 5 5 5 3 3 4 4 3 3 2 2 3 5 6 6 5 5 5 5 5 6 6
10 10 11 12 13 14 13 14 15 15 15 15 14 14 13 12 12 9 8 8 6 5 5 5 4 2 2 2 2 2 2 2 2 3 4 5 5 5 5 5 5 5 5
11 11 11 11 12 13 13 12 13 14 13 13 13 13 13 14 14 12 10 10 7 6 5 4 4 3 2 2 2 2 2 1 2 1 2 3 3 4 4 4 4 4 5
10 10 10 9 10 11 12 12 12 13 12 12 11 12 12 14 16 13 10 10 9 8 6 5 5 3 3 3 4 3 3 1 1 1 1 2 1 1 2 2 3 4 5
8 8 9 9 10 10 13 16 13 11 11 12 11 11 11 13 15 17 17 15 14 12 10 8 6 6 7 6 4 4 3 2 3 2 2 2 1 2 2 2 4 4 4
8 9 9 10 11 11 15 17 16 12 11 11 11 10 8 9 13 11 13 15 14 15 14 11 9 9 8 8 7 6 5 4 4 3 2 2 1 2 2 2 4 4 4
7 8 9 9 10 10 14 16 15 12 11 11 11 11 11 10 11 11 9 9 9 10 11 10 9 9 8 8 9 8 6 3 1 1 2 2 2 2 2 2 4 4 4
6 7 7 9 10 10 14 15 14 9 9 10 10 10 11 11 14 15 11 10 8 7 7 10 9 8 9 11 10 6 5 3 2 2 2 2 1 1 1 2 3 3 4
6 6 7 8 9 10 13 16 15 8 8 8 7 8 13 13 15 17 12 11 11 8 7 6 6 6 6 9 11 8 7 5 3 3 3 3 2 1 1 2 1 2 2
Wind_Direction
171 169 169 167 167 163 165 165 164 168 170 169 168 164 161 161 162 160 167 167 167 171 169 165 162 158 154 149 141 125 87 41 16 7 0 357 354 350 347 345 343 343 341
174 173 173 173 175 174 174 173 172 170 173 168 172 171 167 164 165 163 166 171 172 177 179 176 173 175 175 171 167 177 198 326 329 334 337 336 336 336 335 333 333 333 332
177 175 176 178 181 177 173 169 169 160 166 167 171 172 166 168 168 169 170 171 177 183 184 189 190 191 194 196 206 221 245 281 301 311 317 320 322 322 323 325 324 325 324
179 176 177 181 179 174 171 170 169 162 169 165 167 174 168 165 172 176 175 177 176 181 191 197 203 205 208 216 227 239 255 271 285 296 303 309 311 313 315 316 317 317 318
182 179 180 179 175 174 174 176 172 165 167 167 169 171 174 175 176 178 183 187 187 185 189 201 206 209 218 227 238 252 259 268 279 287 296 301 304 306 309 311 313 314 315
183 181 180 178 175 174 177 175 170 170 167 165 160 157 180 190 183 186 192 191 193 194 192 195 201 215 223 233 243 255 263 269 275 282 291 298 301 304 305 308 309 311 314
184 183 181 179 179 180 181 175 167 168 168 150 126 114 349 250 209 208 197 192 199 199 193 196 195 199 224 234 242 252 261 269 276 280 286 292 297 300 303 306 309 311 313
186 188 183 181 182 180 179 179 167 164 170 168 149 137 174 291 257 224 207 204 205 198 201 201 196 198 204 214 243 250 259 269 276 281 284 289 294 298 302 306 309 311 313
189 190 187 183 184 183 185 185 178 172 175 184 172 156 165 210 231 247 221 214 205 202 207 201 203 205 204 207 226 246 253 263 272 279 283 288 292 297 302 306 309 311 313
192 192 190 186 185 187 186 187 185 179 171 180 190 190 170 157 164 213 260 228 212 210 209 207 206 208 204 206 219 231 242 254 267 275 280 287 292 296 302 306 309 311 315
197 194 193 189 188 189 189 187 184 183 182 182 182 174 171 172 167 164 217 235 233 226 213 209 207 209 207 206 215 230 238 249 261 271 279 285 291 296 301 308 310 314 318
201 198 194 194 191 190 190 190 189 187 189 187 187 181 172 172 184 180 198 211 221 234 218 210 210 212 209 207 219 226 233 241 250 263 274 283 290 296 301 307 310 314 317
204 201 195 197 195 192 190 188 190 192 191 190 193 198 195 196 171 168 176 191 209 238 226 225 218 209 209 205 218 220 229 234 243 254 264 276 287 295 299 305 308 312 316
207 201 198 199 199 194 191 190 193 195 193 196 198 197 199 204 189 182 174 165 183 243 243 239 224 212 210 203 214 206 221 229 237 245 253 264 274 284 294 300 305 309 314
205 203 200 199 200 196 195 190 197 197 194 198 200 199 203 204 196 195 184 175 172 204 236 229 221 216 206 200 205 197 209 226 232 240 243 252 262 275 284 293 300 307 313
206 204 205 201 200 198 195 194 195 196 197 200 197 198 205 204 199 195 194 194 188 189 222 223 214 206 193 199 203 197 209 219 230 236 239 242 254 266 276 286 294 301 308
206 207 208 204 202 200 197 197 199 196 200 201 199 201 207 199 199 198 194 193 198 187 217 238 213 196 187 196 199 200 205 209 230 238 237 240 247 256 268 278 287 295 304
208 209 208 206 205 202 200 199 201 200 201 202 202 202 207 199 202 200 197 200 203 197 200 223 220 199 206 201 196 199 207 214 225 240 237 239 241 251 262 271 279 290 301
207 207 208 207 206 203 201 203 202 201 203 204 202 202 203 198 205 203 199 201 200 196 195 200 215 200 197 178 181 205 205 219 237 239 242 242 243 252 261 269 277 290 299
211 208 210 209 207 206 202 201 202 202 203 205 204 203 202 202 205 202 201 202 192 189 188 192 205 198 188 167 162 187 219 222 245 244 266 259 255 260 263 266 274 290 300
219 211 210 212 210 207 202 198 200 200 202 204 205 206 205 204 203 201 199 196 190 193 189 193 201 196 196 179 195 182 199 206 241 218 266 260 256 251 253 264 278 289 298
221 213 213 212 214 213 202 197 198 199 199 202 205 206 204 202 202 201 200 194 190 193 196 194 200 206 211 200 177 172 166 165 236 217 196 249 217 242 251 243 277 290 301
224 216 214 214 216 214 201 195 195 199 199 203 204 203 202 202 198 201 201 197 199 200 195 192 198 206 201 192 174 177 184 188 207 186 166 233 227 245 249 260 270 280 302
236 220 214 216 216 211 201 196 191 200 203 203 203 202 201 198 196 193 191 197 205 208 206 204 205 204 197 184 182 183 181 166 106 144 156 205 228 249 273 270 266 280 308
254 230 218 215 217 211 199 195 189 198 204 205 203 200 198 199 192 183 186 193 199 208 204 197 197 188 179 172 161 144 145 146 189 207 180 177 210 274 288 269 275 297 317
257 241 226 219 216 212 201 196 192 196 200 201 199 200 198 197 188 181 189 191 197 197 173 171 179 176 171 170 168 171 170 166 162 198 188 168 171 139 293 279 280 298 314